Location: Northcutt
(34.7304°N, 84.4305°W)
Time: 14:44:56
(UTC+00:00)

deb Explorer IX - Visible Passes

Search period start: 03 October 2022 00:00
Search period end: 13 October 2022 00:00
Orbit: 531 x 1064 km, 38.8° (Epoch: 02 October)

Date Brightness Start Highest point End Pass type
(mag) Time Alt. Az. Time Alt. Az. Time Alt. Az.
03 Oct ? 10:10:21 10° SSW 10:14:00 24° SE 10:18:05 10° E visible
04 Oct ? 09:41:56 18° S 09:43:35 21° SE 09:47:15 10° E visible
05 Oct ? 09:13:26 19° SE 09:13:26 19° SE 09:16:23 10° E visible
05 Oct ? 10:54:22 10° WSW 10:58:51 79° SSE 11:04:07 10° ENE visible
06 Oct ? 08:44:49 12° ESE 08:44:49 12° ESE 08:45:30 10° ESE visible
06 Oct ? 10:25:38 23° WSW 10:28:21 73° SSE 10:33:23 10° ENE visible
07 Oct ? 09:56:56 52° SSW 09:57:50 68° SSE 10:02:38 10° ENE visible
08 Oct ? 09:28:10 50° ESE 09:28:10 50° ESE 09:31:55 10° ENE visible
08 Oct ? 11:09:19 10° W 11:13:42 57° N 11:18:47 10° ENE visible
09 Oct ? 08:59:21 23° E 08:59:21 23° E 09:01:12 10° ENE visible
09 Oct ? 10:40:09 19° W 10:43:07 57° N 10:48:00 10° ENE visible
10 Oct ? 08:30:28 10° ENE 08:30:28 10° ENE 08:30:30 10° ENE visible
10 Oct ? 10:11:16 40° WNW 10:12:31 58° N 10:17:13 10° ENE visible
11 Oct ? 09:42:21 56° NNE 09:42:21 56° NNE 09:46:27 10° ENE visible
12 Oct ? 09:13:23 28° ENE 09:13:23 28° ENE 09:15:42 10° ENE visible
12 Oct ? 10:54:11 13° WNW 10:57:55 52° N 11:02:42 10° E visible
